Location: Paris
(48.6709°N, 2.3750°E)
Time: 18:31:49
(UTC+02:00)

QB50P2 - Pass Details

Date: 30 June 2022
Orbit: 590 x 605 km, 97.9° (Epoch: 18 August)

Event Time Altitude Azimuth Distance (km) Brightness Sun altitude
Rises 01:54:09 0° 33° (NNE) 2,861 ? -18.1°
Reaches altitude 10° 01:57:47 10° 66° (ENE) 1,954 ? -18.1°
Maximum altitude 01:59:21 12° 88° (E) 1,838 ? -18.1°
Drops below altitude 10° 02:00:54 10° 109° (ESE) 1,951 ? -18.1°
Enters shadow 02:01:19 - 114° (ESE) 2,018 ? -18.1°
